Meteo Giornale » Osservazioni meteo Olanda » Eindhoven

ore: 01:25 - Osservazioni Meteo Eindhoven
Lat. 51° 27' N Lon. 5° 25' E Alt. 23 metri s.l.m.

coperto Europe/Amsterdam

16 °C

Coperto

Temp. 24 Ore

14 °C

18 °C

Sud

18.5 Km/h

Dew point 12 °C

Umidità 77 %

Visibilità  10 Km

Il sole sorge alle ore 08:09

Il sole tramonta alle ore 18:36

Data e Ora Cielo e Fenomeni T °C DP °C Um. % Pres. hPa Vis. km Vento km/h
Oggi h: 01:25 coperto Coperto 16 12 77 1011 10 S 18.5
Oggi h: 00:55 coperto Coperto 15 12 82 1012 10 S 16.7
Oggi h: 00:25 coperto Coperto 15 12 82 1012 10 S 14.8
Ieri h: 23:55 coperto Coperto 15 13 87 1012 10 S 16.7
Ieri h: 23:25 coperto Coperto 16 13 82 1013 10 S 16.7
Ieri h: 22:55 coperto Coperto 16 14 87 1013 10 S 18.5
Ieri h: 22:25 coperto Coperto 16 14 87 1013 10 S 18.5
Ieri h: 21:55 coperto Coperto 16 15 93 1013 10 S 20.3
Ieri h: 21:25 sereno Sereno 16 15 93 1013 10 S 20.3
Ieri h: 20:55 sereno Sereno 16 15 93 1014 10 S 20.3
Ieri h: 20:25 coperto Coperto 16 15 93 1014 10 S 22.2
Ieri h: 19:55 sereno Sereno 17 15 88 1014 10 S 22.2
Ieri h: 19:25 sereno Sereno 17 16 93 1015 10 S 18.5
Ieri h: 18:55 nuvoloso Nuvoloso 17 16 93 1015 10 S 18.5
Ieri h: 18:33 molto_nuvoloso Molto Nuvoloso 17 16 93 1015 10 S 18.5
Ieri h: 18:29 nuvoloso Nuvoloso 17 16 93 1015 10 S 18.5
Ieri h: 18:25 poco_nuvoloso Poco Nuvoloso 17 16 93 1015 10 S 18.5
Ieri h: 18:03 poco_nuvoloso Poco Nuvoloso 18 17 93 1015 10 S 14.8
Ieri h: 17:55 molto_nuvoloso Molto Nuvoloso 18 17 93 1015 10 S 16.7
Ieri h: 17:25 coperto Coperto 18 17 93 1015 10 S/SO 20.3
Ieri h: 17:09 molto_nuvoloso Molto Nuvoloso 18 17 93 1015 10 S/SO 16.7
Ieri h: 16:55 coperto_pioggia Pioviggine Leggera 18 17 93 1016 10 SO 13
Ieri h: 16:47 coperto_pioggia Pioviggine 18 17 93 1016 6 O/SO 16.7
Ieri h: 16:25 foschia Foschia 18 17 93 1016 3 S/SO 18.5
Ieri h: 16:15 foschia Foschia 18 17 93 1016 4 S/SO 16.7
Ieri h: 15:55 foschia Foschia 18 17 93 1016 5 S/SO 18.5
Ieri h: 15:50 foschia Foschia 18 17 93 1016 5 S/SO 18.5
Ieri h: 15:41 foschia Foschia 18 17 93 1016 3 S/SO 18.5
Ieri h: 15:37 foschia Foschia 18 17 93 1016 4 S/SO 18.5
Ieri h: 15:31 foschia Foschia 18 17 93 1016 3 S/SO 20.3
Ieri h: 15:25 foschia Foschia 18 17 93 1016 6 S/SO 18.5
Ieri h: 14:55 molto_nuvoloso Molto Nuvoloso 18 17 93 1016 10 S/SO 20.3
Ieri h: 14:26 molto_nuvoloso Molto Nuvoloso 18 17 93 1016 10 S/SO 22.2
Ieri h: 14:25 molto_nuvoloso Molto Nuvoloso 18 17 93 1016 10 S/SO 24
Ieri h: 14:06 coperto Coperto 17 17 100 1016 10 S/SO 24
Ieri h: 13:55 foschia Foschia 17 17 100 1016 4 S/SO 24
Ieri h: 13:25 foschia Foschia 17 17 100 1017 2 S/SO 24
Ieri h: 13:08 foschia Foschia 17 17 100 1017 3 S/SO 22.2
Ieri h: 12:57 foschia Foschia 17 17 100 1017 4 S/SO 22.2
Ieri h: 12:55 foschia Foschia 17 17 100 1017 6 S/SO 22.2
Ieri h: 12:48 foschia Foschia 17 17 100 1017 5 S/SO 22.2
Ieri h: 12:25 foschia Foschia 17 16 93 1017 4 S/SO 22.2
Ieri h: 11:55 foschia Foschia 16 16 100 1017 4 S/SO 18.5
Ieri h: 11:25 foschia Foschia 16 16 100 1017 3 S/SO 18.5
Ieri h: 10:55 coperto_pioggia Pioviggine 16 16 100 1017 5 S/SO 18.5
Ieri h: 10:25 foschia Foschia 16 15 93 1017 3 S 16.7
Ieri h: 09:55 coperto_pioggia Pioviggine 16 15 93 1017 3 S 16.7
Ieri h: 09:25 coperto_pioggia Pioviggine 15 15 100 1017 3 S 14.8
Ieri h: 08:55 coperto_pioggia Pioviggine 15 15 100 1016 3 S/SO 16.7
Ieri h: 08:45 coperto_pioggia Pioviggine 15 15 100 1016 3 S/SO 16.7
Ieri h: 08:32 foschia Foschia 15 15 100 1017 4 S/SO 14.8
Ieri h: 08:25 foschia Foschia 15 15 100 1017 6 S/SO 14.8
Ieri h: 07:59 foschia Foschia 15 14 93 1016 4 S 13
Ieri h: 07:55 foschia Foschia 15 14 93 1017 5 S 13
Ieri h: 07:38 coperto_pioggia Pioviggine 15 14 93 1017 5 S 14.8
Ieri h: 07:25 foschia Foschia 15 14 93 1017 4 S 14.8
Ieri h: 07:16 foschia Foschia 15 14 93 1017 4 S 14.8
Ieri h: 06:55 foschia Foschia 14 14 100 1017 8 S 14.8
Ieri h: 06:25 foschia Foschia 14 14 100 1017 5 S 14.8
Ieri h: 05:55 foschia Foschia 14 14 100 1017 6 S 14.8
Ieri h: 05:36 foschia Foschia 14 14 100 1017 6 S 14.8
Ieri h: 05:32 foschia Foschia 14 14 100 1017 6 S 14.8
Ieri h: 05:25 coperto_pioggia Pioviggine 14 14 100 1017 5 S 14.8
Ieri h: 05:14 coperto_pioggia Pioviggine 14 14 100 1017 4 S 14.8
Ieri h: 05:04 coperto_pioggia Pioviggine 14 13 93 1017 4 S 13
Ieri h: 04:55 coperto_pioggia Pioviggine 14 13 93 1017 5 S 14.8
Ieri h: 04:47 coperto_pioggia Pioviggine 14 13 93 1017 5 S 14.8
Ieri h: 04:42 coperto_pioggia Pioviggine 14 13 93 1017 10 S 14.8
Ieri h: 04:35 coperto_pioggia Pioviggine 14 13 93 1017 10 S 14.8
Ieri h: 04:25 nuvoloso_piovaschi Debole Rovescio di Pioggia 14 13 93 1017 10 S 14.8
Ieri h: 04:18 coperto_pioggia Pioggia Debole 14 13 93 1017 10 S 13
Ieri h: 04:00 coperto_pioggia Pioviggine Leggera 14 13 93 1018 10 S 16.7
Ieri h: 03:58 coperto_pioggia Pioggia Debole 14 13 93 1018 10 S 16.7
Ieri h: 03:55 coperto_pioggia Pioviggine 14 14 100 1018 9 S 16.7
Ieri h: 03:29 coperto_pioggia Pioviggine 14 13 93 1018 10 S 13
Ieri h: 03:25 coperto_pioggia Pioggia Debole 14 13 93 1018 10 S 11.1
Ieri h: 03:13 coperto_pioggia Pioggia Debole 14 13 93 1018 10 S 11.1
Ieri h: 03:07 coperto_pioggia Pioggia Debole 14 13 93 1018 10 S 11.1
Ieri h: 03:04 nuvoloso_piovaschi Debole Rovescio di Pioggia 14 13 93 1018 10 S 11.1
Ieri h: 02:55 nuvoloso_piovaschi Rovescio di Pioggia 14 12 87 1019 10 S 13
Ieri h: 02:49 coperto_pioggia Pioviggine 14 12 87 1019 10 S 13
Ieri h: 02:25 coperto Coperto 14 12 87 1018 10 S 11.1
Ieri h: 01:55 coperto Coperto 14 11 82 1018 10 S 14.8